UAL280 KDEN-PANC

Flight info

Callsign UAL280
Flight time N/A
Altitude 34000
Route DDRTH1 DDRTH DLN/N0449F360 GEG 50N122W ANN J195 BKA JOH PTERS3
Aircraft B38M/M-SDE1FGHILORVWXY/HB1

Departure

Time 2026-05-01 14:20
Airport Denver International Airport (KDEN)

Arrival

Time N/A
Airport Ted Stevens Anchorage International Airport (PANC)
Time Latitude Longitude Altitude Speed Heading
2026-05-01 13:14 39.85936 -104.66913 5382 ft 0 kts 180°
2026-05-01 14:07 39.85938 -104.66913 5382 ft 2 kts 180°
2026-05-01 14:07 39.85964 -104.66912 5381 ft 4 kts 184°
2026-05-01 14:07 39.85988 -104.66911 5380 ft 4 kts 177°
2026-05-01 14:08 39.86011 -104.66952 5379 ft 4 kts 84°
2026-05-01 14:08 39.86009 -104.66976 5380 ft 4 kts 88°
2026-05-01 14:08 39.86009 -104.66982 5379 ft 2 kts 90°
2026-05-01 14:11 39.86009 -104.66972 5381 ft 7 kts 90°
2026-05-01 14:11 39.86044 -104.66898 5380 ft 10 kts 47°
2026-05-01 14:12 39.86060 -104.66811 5381 ft 10 kts 90°
2026-05-01 14:12 39.86060 -104.66720 5381 ft 10 kts 90°
2026-05-01 14:12 39.86059 -104.66633 5381 ft 8 kts 86°
2026-05-01 14:12 39.86080 -104.66561 5379 ft 9 kts 65°
2026-05-01 14:13 39.86105 -104.66478 5380 ft 9 kts 82°
2026-05-01 14:13 39.86104 -104.66426 5379 ft 8 kts 90°
2026-05-01 14:13 39.86104 -104.66352 5383 ft 5 kts 90°
2026-05-01 14:13 39.86104 -104.66318 5384 ft 3 kts 90°
2026-05-01 14:14 39.86105 -104.66292 5385 ft 3 kts 86°
2026-05-01 14:14 39.86111 -104.66261 5386 ft 5 kts 63°
2026-05-01 14:14 39.86154 -104.66229 5385 ft 11 kts 359°
2026-05-01 14:14 39.86240 -104.66227 5384 ft 13 kts
2026-05-01 14:15 39.86330 -104.66227 5384 ft 14 kts
2026-05-01 14:15 39.86427 -104.66225 5384 ft 14 kts
2026-05-01 14:15 39.86534 -104.66223 5383 ft 16 kts
2026-05-01 14:15 39.86652 -104.66223 5377 ft 18 kts
2026-05-01 14:16 39.86787 -104.66221 5375 ft 21 kts
2026-05-01 14:16 39.86943 -104.66219 5370 ft 23 kts
2026-05-01 14:16 39.87112 -104.66217 5367 ft 25 kts
2026-05-01 14:16 39.87289 -104.66215 5365 ft 26 kts
2026-05-01 14:17 39.87463 -104.66215 5363 ft 18 kts
2026-05-01 14:17 39.87572 -104.66212 5364 ft 14 kts
2026-05-01 14:17 39.87659 -104.66211 5363 ft 12 kts
2026-05-01 14:17 39.87739 -104.66207 5364 ft 9 kts 17°
2026-05-01 14:18 39.87756 -104.66146 5362 ft 5 kts 92°
2026-05-01 14:18 39.87756 -104.66145 5362 ft 0 kts 92°
2026-05-01 14:19 39.87754 -104.66091 5361 ft 28 kts 92°
2026-05-01 14:19 39.87749 -104.65538 5355 ft 92 kts 90°
2026-05-01 14:19 39.87742 -104.64453 5341 ft 146 kts 90°
2026-05-01 14:19 39.87727 -104.62924 5330 ft 189 kts 92°
2026-05-01 14:20 39.87698 -104.61182 5831 ft 194 kts 91°
2026-05-01 14:20 39.88062 -104.57599 7088 ft 204 kts 73°
2026-05-01 14:20 39.88430 -104.55757 7506 ft 219 kts 73°
2026-05-01 14:21 39.88853 -104.53773 7880 ft 234 kts 73°
2026-05-01 14:21 39.89316 -104.51654 8293 ft 252 kts 72°
2026-05-01 14:21 39.89825 -104.49403 8843 ft 263 kts 72°
2026-05-01 14:22 39.90859 -104.44592 9884 ft 288 kts 73°
2026-05-01 14:22 39.91657 -104.42236 9943 ft 282 kts 50°
2026-05-01 14:22 39.93134 -104.40614 9977 ft 280 kts 25°
2026-05-01 14:22 39.95030 -104.39902 10238 ft 292 kts
2026-05-01 14:23 39.97076 -104.39473 10538 ft 311 kts
2026-05-01 14:23 39.99270 -104.39046 10924 ft 326 kts
2026-05-01 14:23 40.01533 -104.38625 11605 ft 330 kts
2026-05-01 14:23 40.03833 -104.38279 12285 ft 334 kts 359°
2026-05-01 14:24 40.06106 -104.38839 12970 ft 336 kts 338°
2026-05-01 14:24 40.08124 -104.40395 13604 ft 341 kts 324°
2026-05-01 14:24 40.10064 -104.42199 14240 ft 344 kts 324°
2026-05-01 14:24 40.12022 -104.44036 14849 ft 347 kts 324°
2026-05-01 14:25 40.13985 -104.45893 15459 ft 350 kts 324°
2026-05-01 14:25 40.15963 -104.47775 16061 ft 352 kts 324°
2026-05-01 14:25 40.17949 -104.49670 16653 ft 355 kts 325°
2026-05-01 14:25 40.19943 -104.51590 17225 ft 358 kts 324°
2026-05-01 14:26 40.21950 -104.53534 17784 ft 360 kts 325°
2026-05-01 14:26 40.26000 -104.57460 18839 ft 365 kts 325°
2026-05-01 14:26 40.28049 -104.59448 19289 ft 367 kts 325°
2026-05-01 14:27 40.30112 -104.61449 19746 ft 370 kts 325°
2026-05-01 14:27 40.32188 -104.63462 20204 ft 372 kts 325°
2026-05-01 14:27 40.34248 -104.65461 20633 ft 375 kts 325°
2026-05-01 14:28 40.38462 -104.69555 21511 ft 379 kts 325°
2026-05-01 14:28 40.40589 -104.71624 21960 ft 382 kts 325°
2026-05-01 14:28 40.42727 -104.73706 22384 ft 384 kts 325°
2026-05-01 14:28 40.44885 -104.75807 22818 ft 386 kts 325°
2026-05-01 14:29 40.47048 -104.77917 23238 ft 389 kts 325°
2026-05-01 14:29 40.49225 -104.80040 23666 ft 391 kts 325°
2026-05-01 14:30 40.55820 -104.86487 24787 ft 397 kts 324°
2026-05-01 14:30 40.58040 -104.88661 25165 ft 398 kts 325°
2026-05-01 14:30 40.60266 -104.90842 25508 ft 400 kts 325°
2026-05-01 14:31 40.64758 -104.95249 26223 ft 404 kts 325°
2026-05-01 14:31 40.67018 -104.97469 26564 ft 406 kts 325°
2026-05-01 14:31 40.69289 -104.99702 26876 ft 409 kts 325°
2026-05-01 14:31 40.71573 -105.01950 27191 ft 411 kts 325°
2026-05-01 14:32 40.73869 -105.04211 27501 ft 413 kts 325°
2026-05-01 14:32 40.76147 -105.06539 27803 ft 417 kts 319°
2026-05-01 14:32 40.78010 -105.09421 28140 ft 420 kts 310°
2026-05-01 14:32 40.79843 -105.12436 28382 ft 423 kts 311°
2026-05-01 14:33 40.81694 -105.15482 28677 ft 425 kts 311°
2026-05-01 14:33 40.83538 -105.18545 28971 ft 428 kts 311°
2026-05-01 14:33 40.85391 -105.21637 29244 ft 430 kts 311°
2026-05-01 14:33 40.87251 -105.24744 29520 ft 432 kts 311°
2026-05-01 14:34 40.89117 -105.27869 29791 ft 434 kts 311°
2026-05-01 14:34 40.90993 -105.31011 30061 ft 436 kts 311°
2026-05-01 14:34 40.92878 -105.34172 30320 ft 438 kts 311°
2026-05-01 14:34 40.94768 -105.37347 30549 ft 440 kts 311°
2026-05-01 14:35 40.96663 -105.40533 30792 ft 441 kts 311°
2026-05-01 14:35 40.98567 -105.43737 31038 ft 443 kts 311°
2026-05-01 14:35 41.00450 -105.46908 31268 ft 445 kts 311°
2026-05-01 14:35 41.02363 -105.50132 31522 ft 445 kts 311°
2026-05-01 14:36 41.04271 -105.53355 31830 ft 444 kts 311°
2026-05-01 14:36 41.06180 -105.56579 32148 ft 444 kts 311°
2026-05-01 14:36 41.08082 -105.59795 32455 ft 443 kts 310°
2026-05-01 14:36 41.09982 -105.63013 32769 ft 442 kts 310°
2026-05-01 14:37 41.11880 -105.66230 33068 ft 441 kts 310°
2026-05-01 14:37 41.13768 -105.69434 33359 ft 441 kts 310°
2026-05-01 14:37 41.15657 -105.72642 33634 ft 440 kts 310°
2026-05-01 14:37 41.17538 -105.75840 33908 ft 440 kts 310°
2026-05-01 14:38 41.19420 -105.79043 34168 ft 439 kts 310°
2026-05-01 14:38 41.23181 -105.85452 34241 ft 439 kts 310°
2026-05-01 14:39 41.26905 -105.91815 34234 ft 439 kts 310°
2026-05-01 14:39 41.30653 -105.98230 34236 ft 439 kts 310°
2026-05-01 14:40 41.34397 -106.04653 34232 ft 439 kts 310°
2026-05-01 14:40 41.38147 -106.11100 34227 ft 440 kts 310°
2026-05-01 14:41 41.41892 -106.17549 34234 ft 440 kts 310°
2026-05-01 14:41 41.45645 -106.23993 34233 ft 439 kts 313°
2026-05-01 14:42 41.49715 -106.29994 34232 ft 439 kts 315°
2026-05-01 14:42 41.53096 -106.35044 34229 ft 439 kts 315°
2026-05-01 14:43 41.57156 -106.41148 34235 ft 439 kts 315°
2026-05-01 14:43 41.61213 -106.47261 34245 ft 439 kts 315°
2026-05-01 14:44 41.65264 -106.53379 34262 ft 439 kts 315°
2026-05-01 14:44 41.71345 -106.62586 34261 ft 440 kts 315°
2026-05-01 14:45 41.77385 -106.71761 34248 ft 440 kts 315°
2026-05-01 14:46 41.81430 -106.77920 34253 ft 440 kts 315°
2026-05-01 14:46 41.87486 -106.87166 34250 ft 440 kts 315°
2026-05-01 14:47 41.91525 -106.93347 34257 ft 440 kts 315°
2026-05-01 14:48 41.97567 -107.02620 34247 ft 440 kts 315°
2026-05-01 14:48 42.03603 -107.11913 34247 ft 440 kts 315°
2026-05-01 14:49 42.11652 -107.24349 34233 ft 440 kts 315°
2026-05-01 14:50 42.19665 -107.36783 34223 ft 441 kts 315°
2026-05-01 14:51 42.25438 -107.45772 34221 ft 441 kts 315°
2026-05-01 14:52 42.31464 -107.55187 34215 ft 441 kts 315°
2026-05-01 14:53 42.37483 -107.64619 34209 ft 442 kts 315°
2026-05-01 14:53 42.41501 -107.70933 34206 ft 442 kts 315°
2026-05-01 14:54 42.45493 -107.77219 34205 ft 442 kts 315°
2026-05-01 14:54 42.49501 -107.83544 34206 ft 443 kts 315°
2026-05-01 14:55 42.53511 -107.89885 34200 ft 443 kts 315°
2026-05-01 14:55 42.57518 -107.96236 34201 ft 443 kts 315°
2026-05-01 14:56 42.61524 -108.02599 34196 ft 443 kts 315°
2026-05-01 14:56 42.65532 -108.08979 34201 ft 444 kts 315°
2026-05-01 14:57 42.69541 -108.15373 34196 ft 444 kts 315°
2026-05-01 14:57 42.75522 -108.24942 34200 ft 445 kts 315°
2026-05-01 14:58 42.79529 -108.31369 34212 ft 445 kts 315°
2026-05-01 14:58 42.83536 -108.37810 34222 ft 446 kts 315°
2026-05-01 14:59 42.87543 -108.44264 34232 ft 446 kts 315°
2026-05-01 14:59 42.91561 -108.50752 34233 ft 447 kts 315°
2026-05-01 15:00 42.97554 -108.60455 34242 ft 447 kts 315°
2026-05-01 15:01 43.01569 -108.66972 34237 ft 448 kts 315°
2026-05-01 15:01 43.05575 -108.73490 34235 ft 448 kts 315°
2026-05-01 15:02 43.09584 -108.80030 34224 ft 448 kts 315°
2026-05-01 15:02 43.13590 -108.86577 34227 ft 448 kts 315°
2026-05-01 15:03 43.17570 -108.93097 34215 ft 449 kts 315°
2026-05-01 15:03 43.21575 -108.99672 34219 ft 449 kts 315°
2026-05-01 15:04 43.25575 -109.06254 34225 ft 449 kts 314°
2026-05-01 15:04 43.29579 -109.12857 34226 ft 450 kts 314°
2026-05-01 15:05 43.33575 -109.19462 34228 ft 450 kts 314°
2026-05-01 15:05 43.37576 -109.26091 34236 ft 450 kts 314°
2026-05-01 15:06 43.41556 -109.32700 34254 ft 451 kts 314°
2026-05-01 15:06 43.45556 -109.39358 34254 ft 451 kts 314°
2026-05-01 15:07 43.49542 -109.46006 34265 ft 451 kts 314°
2026-05-01 15:07 43.53537 -109.52685 34275 ft 452 kts 314°
2026-05-01 15:08 43.57532 -109.59380 34275 ft 452 kts 314°
2026-05-01 15:08 43.61537 -109.66107 34274 ft 453 kts 314°
2026-05-01 15:09 43.65528 -109.72826 34271 ft 453 kts 314°
2026-05-01 15:09 43.69499 -109.79527 34281 ft 454 kts 314°
2026-05-01 15:10 43.73497 -109.86289 34288 ft 454 kts 314°
2026-05-01 15:10 43.79492 -109.96458 34303 ft 454 kts 314°
2026-05-01 15:11 43.85481 -110.06652 34320 ft 454 kts 314°
2026-05-01 15:12 43.89443 -110.13417 34325 ft 455 kts 314°
2026-05-01 15:12 43.95428 -110.23665 34340 ft 455 kts 313°
2026-05-01 15:14 44.05389 -110.40802 34340 ft 456 kts 313°
2026-05-01 15:14 44.11331 -110.51073 34339 ft 456 kts 313°
2026-05-01 15:15 44.19282 -110.64876 34319 ft 457 kts 313°
2026-05-01 15:16 44.27230 -110.78737 34296 ft 457 kts 313°
2026-05-01 15:18 44.37151 -110.96134 34279 ft 458 kts 312°
2026-05-01 15:19 44.45046 -111.10055 34294 ft 458 kts 312°
2026-05-01 15:19 44.50979 -111.20560 34301 ft 458 kts 311°
2026-05-01 15:20 44.56904 -111.31091 34300 ft 458 kts 311°
2026-05-01 15:21 44.60844 -111.38115 34298 ft 458 kts 311°
2026-05-01 15:21 44.64785 -111.45157 34282 ft 458 kts 311°
2026-05-01 15:22 44.70687 -111.55738 34267 ft 458 kts 311°
2026-05-01 15:22 44.74590 -111.62754 34249 ft 458 kts 311°
2026-05-01 15:23 44.78512 -111.69824 34247 ft 458 kts 311°
2026-05-01 15:23 44.82430 -111.76903 34236 ft 457 kts 311°
2026-05-01 15:24 44.86338 -111.83983 34242 ft 457 kts 310°
2026-05-01 15:24 44.90238 -111.91064 34235 ft 457 kts 310°
2026-05-01 15:25 44.94116 -111.98118 34231 ft 457 kts 310°
2026-05-01 15:25 44.98009 -112.05217 34225 ft 457 kts 310°
2026-05-01 15:26 45.01902 -112.12333 34235 ft 456 kts 310°
2026-05-01 15:26 45.05778 -112.19436 34239 ft 456 kts 310°
2026-05-01 15:27 45.09626 -112.26504 34251 ft 456 kts 310°
2026-05-01 15:28 45.15412 -112.37166 34259 ft 455 kts 310°
2026-05-01 15:28 45.18624 -112.43098 34261 ft 455 kts 310°
2026-05-01 15:29 45.24380 -112.53778 34265 ft 454 kts 308°
2026-05-01 15:30 45.31610 -112.68435 34264 ft 453 kts 307°
2026-05-01 15:31 45.40215 -112.85831 34253 ft 452 kts 307°
2026-05-01 15:32 45.47425 -113.00488 34254 ft 451 kts 307°
2026-05-01 15:34 45.58160 -113.22452 34271 ft 450 kts 306°